Starlink 4079

operational
NORAD ID: 52666 Int'l Des: 2022-053 Owner: SPXS Country: US Constellation: starlink
LEOCIRCULAR

Über Starlink 4079

Beschreibung wird geladen...

Live-Position

3D-Globus wird geladen...

Nächste Überflüge

Höhenverlauf

Altitude vs Time

uPlot chart will show altitude changes over time

Zweizeiliger Elementsatz

1 52666U 22053L 25310.49200299 .00002091 00000-0 14938-3 0 9993
2 52666 53.2188 346.7906 0001400 84.8650 275.2502 15.08850247192459
Epoch: 6. Nov. 2025 • Age: 18 hours

Aktueller Status

Höhe 540.0 km
Geschwindigkeit 7.60 km/s
Subsatellitenpunkt 22.59°N, 9.23°E
Startdatum 18. Mai 2022
Alter 3.4 years
Typ internet

Technische Details

Klassifizierung Payload
Masse 297.00 kg
Trockenmasse 275.00 kg
Gesamtmasse 297.00 kg
Länge 0.20 m
Durchmesser 2.80 m
Spannweite 9.00 m
Form Box + pan
Hersteller SPXS
Bus-Typ Starlink
Phasenstatus In Orbit
Besitzer/Staat SPXS/US

Große Konstellationen

Loading constellations...